Smyrna, TN

9:41 AM CST on November 23, 2017 (GMT -0600)
Smyrna

Weather History for KMQY - September, 2013

Change the Weather History Date:

Sunday, September 8, 2013

  Actual Average Record
Temperature  
Mean Temperature 78 °F -  
Max Temperature 91 °F 82 °F 96 °F (1999)
Min Temperature 66 °F 63 °F 48 °F (2017)
Cooling Degree Days 13    
Growing Degree Days 28 (Base 50)    
Moisture  
Dew Point 68 °F    
Average Humidity 75    
Maximum Humidity 100    
Minimum Humidity 45    
Precipitation  
Precipitation 0.00 in - - ()
Sea Level Pressure  
Sea Level Pressure 30.02 in    
Wind  
Wind Speed 1 mph (NNE)    
Max Wind Speed 12 mph    
Max Gust Speed 24 mph    
Visibility 10 miles    
Events      
Averages and records for this station are not official NWS values.
T = Trace of Precipitation, MM = Missing Value Source: NWS Daily Summary

Daily Weather History Graph

Daily Weather History Graph

Search for Another Location

Airport or City:

Trip Planner

Search our weather history database for the weather conditions in past years. The results will help you decide how hot, cold, wet, or windy it might be!

Date:

Astronomy

Sep. 08, 2013 Rise Set
Actual Time 6:23 AM CDT 7:03 PM CDT
Civil Twilight 5:57 AM CDT 7:29 PM CDT
Nautical Twilight 5:26 AM CDT 7:59 PM CDT
Astronomical Twilight 4:55 AM CDT 8:30 PM CDT
Moon 9:32 AM CDT (9/8) 8:46 PM CDT (9/8)
Length of Visible Light 13h 31m
Length of Day
12h 39m
Waxing Crescent, 11% of the Moon is Illuminated
Sep 8
Waxing Crescent
Sep 12
First Quarter
Sep 19
Full
Sep 26
Last Quarter
Oct 4
New

Hourly Weather History & Observations

Time (CDT) Temp. Heat Index Dew Point Humidity Pressure Visibility Wind Dir Wind Speed Gust Speed Precip Events Conditions
12:56 AM 68.0 °F - 68.0 °F 100% 30.04 in 10.0 mi Calm Calm - N/A   Clear
1:56 AM 68.9 °F - 68.9 °F 100% 30.03 in 10.0 mi Calm Calm - N/A   Clear
2:56 AM 68.0 °F - 66.9 °F 96% 30.02 in 10.0 mi Calm Calm - N/A   Clear
3:56 AM 66.9 °F - 66.9 °F 100% 30.02 in 9.0 mi Calm Calm - N/A   Clear
4:56 AM 68.0 °F - 66.9 °F 96% 30.02 in 10.0 mi Calm Calm - N/A   Clear
5:56 AM 68.0 °F - 66.9 °F 96% 30.03 in 9.0 mi Calm Calm - N/A   Clear
6:56 AM 68.9 °F - 66.9 °F 93% 30.05 in 10.0 mi Calm Calm - N/A   Clear
7:56 AM 72.0 °F - 68.0 °F 87% 30.04 in 10.0 mi Calm Calm - N/A   Clear
8:56 AM 79.0 °F - 70.0 °F 74% 30.04 in 10.0 mi Calm Calm - N/A   Clear
9:56 AM 81.9 °F 85.2 °F 68.9 °F 65% 30.05 in 10.0 mi West 5.8 mph - N/A   Clear
10:56 AM 81.9 °F 85.6 °F 70.0 °F 67% 30.05 in 10.0 mi Calm Calm - N/A   Overcast
11:56 AM 86.9 °F 92.5 °F 70.9 °F 59% 30.04 in 10.0 mi Calm Calm - N/A   Clear
12:56 PM 90.0 °F 92.8 °F 66.9 °F 46% 30.03 in 10.0 mi North 8.1 mph - N/A   Clear
1:56 PM 90.0 °F 93.6 °F 68.0 °F 48% 30.01 in 10.0 mi NNE 8.1 mph 24.2 mph N/A   Partly Cloudy
2:56 PM 90.0 °F 92.4 °F 65.8 °F 45% 29.99 in 10.0 mi North 11.5 mph 19.6 mph N/A   Clear
3:56 PM 90.9 °F 94.0 °F 66.9 °F 45% 29.98 in 10.0 mi North 5.8 mph - N/A   Clear
4:56 PM 90.9 °F 94.8 °F 68.0 °F 47% 29.97 in 10.0 mi NE 4.6 mph - N/A   Clear
5:56 PM 88.9 °F 91.8 °F 66.9 °F 48% 29.97 in 10.0 mi North 4.6 mph - N/A   Clear
6:56 PM 86.0 °F 89.4 °F 68.0 °F 55% 29.98 in 10.0 mi NE 4.6 mph - N/A   Clear
7:56 PM 79.0 °F - 70.0 °F 74% 29.99 in 10.0 mi Calm Calm - N/A   Clear
8:56 PM 77.0 °F - 70.0 °F 79% 30.00 in 10.0 mi Calm Calm - N/A   Clear
9:56 PM 73.9 °F - 70.9 °F 90% 30.01 in 10.0 mi Calm Calm - N/A   Clear
10:56 PM 72.0 °F - 70.0 °F 93% 30.02 in 10.0 mi Calm Calm - N/A   Clear
11:56 PM 72.0 °F - 70.9 °F 96% 30.03 in 10.0 mi Calm Calm - N/A   Clear